DRAGON CRS-19

Last updated on Wed Jan 08 2020 00:02:13 GMT+0000 (Coordinated Universal Time)

1 44821U 19083A 20006.55702477 .00001059 00000-0 26955-4 0 9991 2 44821 51.6453 73.1830 0005159 105.4393 49.5527 15.49542542 4942
UTC large
Height (km)
Speed (km/s)
/
Latitude / Longitude
Inclination (degrees)
Orbital Period (minutes)
Azimuth
Elevation
Range (km)
Doppler Factor

Next 0 passes for location: London (51.5072 / 0.1276)

Sorry there are no passes over London.